Location: Winthrop
(48.4780°N, 120.1850°W)
Time: 18:54:58
(UTC-07:00)

CAS-4B - Pass Details

Date: 26 May 2022
Orbit: 523 x 537 km, 43.0° (Epoch: 29 June)

Event Time Altitude Azimuth Distance (km) Brightness Sun altitude
Rises 22:41:53 0° 268° (W) 2,655 ? -13.9°
Reaches altitude 10° 22:44:29 10° 253° (WSW) 1,761 ? -14.1°
Maximum altitude 22:47:35 22° 202° (SSW) 1,190 ? -14.4°
Enters shadow 22:48:24 20° 185° (S) 1,236 ? -14.5°
